Home > Weather > Saint John's > Past weeks

Flag for Antigua and Barbuda Past Weather in Saint John's, Antigua and Barbuda — Yesterday and Last 2 Weeks

Now
81 °F

Passing clouds.


Feels Like: 85 °F
Forecast: 80 / 87 °F
Wind: 8 mph from East

Location: Vc Bird International Antigua Airport

Current Time: Jul 25, 2016 at 2:34:12 AM

Latest Report: Jul 25, 2016 at 2:00 AM


Visibility: N/A

Pressure: 29.98 "Hg

Humidity: 79%

Dew Point: 73 °F

Location of Saint John'sLocation

Past Weather in Saint John's — Graph

°F

Saint John's Temperature Yesterday

Maximum temperature yesterday: 86 °F (at 10:00 AM)
Minimum temperature yesterday: 79 °F (at 4:00 AM)
Average temperature yesterday: 83 °F

High & Low Weather Summary for the Past Weeks

 TemperatureHumidityPressure
High88 °F (Jul 10, 12:00 PM)89% (Jul 18, 4:00 PM)30.09 "Hg (Jul 18, 4:00 PM)
Low77 °F (Jul 18, 4:00 PM)55% (Jul 18, 11:00 AM)29.95 "Hg (Jul 12, 4:00 PM)
Average83 °F73%30.01 "Hg
* Reported Jul 10 1:00 AM — Jul 25 1:00 AM, Saint John's, Weather by CustomWeather, © 2016

Note: Actual official high and low records may vary slightly from our data, if they occured in-between our weather recording intervals... More about our weather records

Advertising

Saint John's Weather History for the Previous 24 Hours

Scroll right to see more
 ConditionsComfort  
Time TempWeatherWind HumidityBarometerVisibility
1:00 AM
Mon, Jul 25
81 °FPassing clouds.9 mph79%29.98 "HgN/A
12:00 AM82 °FPassing clouds.9 mph74%30.01 "HgN/A
11:00 PM
Sun, Jul 24
82 °FPassing clouds.10 mph74%30.01 "HgN/A
10:00 PM81 °FPassing clouds.9 mph79%30.01 "HgN/A
9:00 PM82 °FPassing clouds.9 mph74%30.01 "HgN/A
8:00 PM82 °FPassing clouds.9 mph74%30.01 "HgN/A
7:00 PM82 °FPassing clouds.10 mph74%29.98 "HgN/A
6:00 PM84 °FPassing clouds.10 mph74%29.98 "HgN/A
5:00 PM86 °FScattered clouds.12 mph70%29.98 "HgN/A
4:00 PM86 °FScattered clouds.13 mph66%29.98 "HgN/A
3:00 PM86 °FScattered clouds.13 mph66%29.98 "HgN/A
2:00 PM86 °FScattered clouds.13 mph66%29.98 "HgN/A
1:00 PM86 °FScattered clouds.14 mph66%29.98 "HgN/A
12:00 PM79 °FPartly sunny.5 mph84%30.01 "HgN/A
11:00 AM86 °FPartly sunny.14 mph66%30.01 "HgN/A
10:00 AM86 °FScattered clouds.13 mph66%30.01 "HgN/A
9:00 AM84 °FScattered clouds.14 mph66%30.01 "HgN/A
8:00 AM82 °FScattered clouds.13 mph74%30.01 "HgN/A
7:00 AM79 °FScattered clouds.10 mph84%30.01 "HgN/A
6:00 AM81 °FSprinkles. Partly sunny.8 mph74%29.98 "HgN/A
5:00 AM79 °FPassing clouds.3 mph79%29.98 "HgN/A
4:00 AM79 °FSprinkles. Passing clouds.7 mph74%29.98 "HgN/A
3:00 AM81 °FPassing clouds.9 mph79%29.98 "HgN/A
2:00 AM81 °FPassing clouds.9 mph79%29.98 "HgN/A
Weather by CustomWeather, © 2016

See weather overviewHow to use our weather pages